User: anonymous   Login
Location: Trois-Rivi�res
(46.3500°N, 72.5500°W)
Time: 01:21:29
(UTC-05:00)
Language:

SJ-11-01 - Orbit

View from above orbital plane
View from above orbital plane
View from above satellite
View from above satellite

Ground track
Ground track

The orbit data is extracted from the following two-line orbital elements,

1 36088U 09061A   15029.86473459  .00000374  00000-0  87549-4 0  8084
2 36088 098.2592 076.5325 0012123 083.3887 276.8679 14.60123725277817
Epoch (UTC): 29 January 2015 20:45:13
Eccentricity: 0.0012123
inclination: 98.2592°
perigee height: 684 km
apogee height: 701 km
right ascension of ascending node: 76.5325°
argument of perigee: 83.3887°
revolutions per day: 14.60123725
mean anomaly at epoch: 276.8679°
orbit number at epoch: 27781

The dashed part of the orbit path shows where the satellite is in the earth's shadow,  

DLR